Retour au catalogue

RE

ActifScienceVLEO
NORAD 38765·PAYLOAD·🇺🇸 United States

Lancé Sep 13, 2012 depuis Vandenberg Space Force Base

Loading…

Prochains Passages (prochaines 24 heures)

TLE

FraisSource: Space-Track

Époque: Sep 14, 2026, 09:55 UTC

1 38765U 12048H   26257.41342414  .00005200  00000-0  21628-3 0  9998
2 38765  64.6541 251.3549 0077981 145.4092 215.2144 15.22209434128971

Suivez RE en temps réel avec AllMySat

Download on the App Store